WBANNO,USDM_WEEK,LONGITUDE,LATITUDE,SMVWC_5_CM_MEAN,SMANOM_5_CM_MEAN,SMPERC_5_CM_30COUNTS,SMPERC_5_CM_70COUNTS,SMVWC_10_CM_MEAN,SMANOM_10_CM_MEAN,SMPERC_10_CM_30COUNTS,SMPERC_10_CM_70COUNTS,SMVWC_20_CM_MEAN,SMANOM_20_CM_MEAN,SMPERC_20_CM_30COUNTS,SMPERC_20_CM_70COUNTS,SMVWC_50_CM_MEAN,SMANOM_50_CM_MEAN,SMPERC_50_CM_30COUNTS,SMPERC_50_CM_70COUNTS,SMVWC_100_CM_MEAN,SMANOM_100_CM_MEAN,SMPERC_100_CM_30COUNTS,SMPERC_100_CM_70COUNTS,SMVWC_TOP_CM_MEAN,SMANOM_TOP_CM_MEAN,SMPERC_TOP_CM_30COUNTS,SMPERC_TOP_CM_70COUNTS,SMVWC_COLUMN_CM_MEAN,SMANOM_COLUMN_CM_MEAN,SMPERC_COLUMN_CM_30COUNTS,SMPERC_COLUMN_CM_70COUNTS
94074,20110418,-104.76,40.81,,,,,,,,,,,,,,,,,,,,,,,,,,,,
94074,20110419,-104.76,40.81,,,,,,,,,,,,,,,,,,,,,,,,,,,,
94074,20110420,-104.76,40.81,,,,,,,,,,,,,,,,,,,,,,,,,,,,
94074,20110421,-104.76,40.81,,,,,,,,,,,,,,,,,,,,,,,,,,,,
94074,20110422,-104.76,40.81,,,,,,,,,,,,,,,,,,,,,,,,,,,,
94074,20110423,-104.76,40.81,,,,,,,,,,,,,,,,,,,,,,,,,,,,
94074,20110424,-104.76,40.81,0.155,1.32,0,1,0.127,2.36,0,1,0.08,1.41,0,1,0.083,0.14,0,0.16,0.129,1.32,0,1,0.141,1.84,0,1,0.115,2.68,0,1
94074,20110425,-104.76,40.81,0.157,1.34,0,1,0.128,2.45,0,1,0.081,1.53,0,1,0.083,0.08,0,0.089,0.129,1.24,0,1,0.143,1.87,0,1,0.116,2.71,0,1
94074,20110426,-104.76,40.81,0.162,1.4,0,1,0.133,2.64,0,1,0.085,1.86,0,1,0.082,0.02,0,0.006,0.127,1.13,0,1,0.147,1.97,0,1,0.118,2.82,0,1
94074,20110427,-104.76,40.81,0.164,1.42,0,1,0.136,2.78,0,1,0.09,2.21,0,1,0.081,-0.04,0,0,0.126,1.02,0,1,0.15,2.02,0,1,0.119,2.89,0,1
94074,20110428,-104.76,40.81,0.165,1.43,0,1,0.138,2.88,0,1,0.094,2.55,0,1,0.081,-0.09,0,0,0.126,0.91,0,1,0.152,2.06,0,1,0.121,2.91,0,1
94074,20110429,-104.76,40.81,0.164,1.4,0,1,0.138,2.86,0,1,0.098,2.87,0,1,0.08,-0.14,0,0,0.125,0.8,0,1,0.151,2.04,0,1,0.121,2.84,0,1
94074,20110430,-104.76,40.81,0.163,1.37,0,1,0.137,2.82,0,1,0.101,3.17,0,1,0.08,-0.17,0,0,0.124,0.71,0,1,0.15,2.02,0,1,0.121,2.76,0,1
94074,20110501,-104.76,40.81,0.161,1.36,0,1,0.137,2.79,0,1,0.104,3.4,0,1,0.08,-0.21,0,0,0.123,0.6,0,0.952,0.149,2.02,0,1,0.121,2.68,0,1
94074,20110502,-104.76,40.81,0.159,1.32,0,1,0.135,2.72,0,1,0.106,3.55,0,1,0.08,-0.25,0,0,0.123,0.49,0,0.857,0.147,1.99,0,1,0.12,2.56,0,1
94074,20110503,-104.76,40.81,0.154,1.26,0,1,0.131,2.55,0,1,0.106,3.5,0,1,0.079,-0.3,0.036,0,0.122,0.39,0,0.72,0.143,1.93,0,1,0.119,2.37,0,1
94074,20110504,-104.76,40.81,0.151,1.22,0,1,0.129,2.42,0,1,0.105,3.44,0,1,0.079,-0.35,0.131,0,0.121,0.3,0,0.577,0.14,1.9,0,1,0.117,2.21,0,1
94074,20110505,-104.76,40.81,0.148,1.17,0,1,0.126,2.3,0,1,0.105,3.41,0,1,0.079,-0.39,0.185,0,0.121,0.22,0,0.435,0.137,1.85,0,1,0.116,2.08,0,1
94074,20110506,-104.76,40.81,0.144,1.1,0,1,0.124,2.19,0,1,0.105,3.38,0,1,0.079,-0.42,0.251,0,0.12,0.15,0,0.293,0.134,1.78,0,1,0.114,1.96,0,1
94074,20110507,-104.76,40.81,0.14,1.04,0,1,0.122,2.1,0,1,0.104,3.34,0,1,0.079,-0.47,0.323,0,0.12,0.09,0,0.15,0.131,1.71,0,1,0.113,1.84,0,1
94074,20110508,-104.76,40.81,0.137,0.96,0,1,0.12,2.03,0,1,0.104,3.34,0,1,0.079,-0.48,0.365,0,0.119,0.05,0,0.054,0.129,1.62,0,1,0.112,1.74,0,1
94074,20110509,-104.76,40.81,0.133,0.87,0,0.97,0.119,1.97,0,1,0.104,3.38,0,1,0.079,-0.48,0.395,0,0.119,0.02,0,0.006,0.126,1.51,0,1,0.111,1.64,0,1
94074,20110510,-104.76,40.81,0.127,0.74,0,0.862,0.117,1.89,0,1,0.105,3.39,0,1,0.08,-0.47,0.377,0,0.119,0,0,0,0.122,1.35,0,1,0.11,1.51,0,1
94074,20110511,-104.76,40.81,0.121,0.6,0,0.719,0.115,1.8,0,1,0.105,3.38,0,1,0.081,-0.45,0.305,0,0.119,-0.01,0,0,0.118,1.17,0,1,0.108,1.37,0,1
94074,20110512,-104.76,40.81,0.119,0.55,0,0.659,0.114,1.77,0,1,0.104,3.32,0,1,0.081,-0.46,0.359,0,0.119,-0.01,0,0,0.117,1.08,0,1,0.108,1.29,0,1
94074,20110513,-104.76,40.81,0.122,0.58,0,0.661,0.117,1.87,0,1,0.106,3.39,0,1,0.081,-0.5,0.435,0,0.119,-0.02,0,0,0.12,1.13,0,1,0.109,1.31,0,1
94074,20110514,-104.76,40.81,0.126,0.63,0,0.661,0.12,1.97,0,1,0.108,3.54,0,1,0.08,-0.54,0.506,0,0.119,-0.04,0.006,0,0.123,1.18,0,1,0.111,1.36,0,1
94074,20110515,-104.76,40.81,0.129,0.68,0,0.661,0.122,2.04,0,1,0.11,3.67,0,1,0.081,-0.54,0.53,0,0.119,-0.07,0.048,0,0.126,1.22,0,1,0.112,1.4,0,1
94074,20110516,-104.76,40.81,0.133,0.75,0,0.69,0.125,2.1,0,1,0.113,3.74,0,1,0.083,-0.41,0.5,0.113,0.118,-0.11,0.101,0,0.129,1.29,0,1,0.114,1.48,0,1
94074,20110517,-104.76,40.81,0.139,0.85,0,0.798,0.128,2.18,0,1,0.115,3.83,0,1,0.086,-0.18,0.482,0.256,0.118,-0.16,0.244,0,0.133,1.39,0,1,0.117,1.61,0,1
94074,20110518,-104.76,40.81,0.145,0.97,0,0.94,0.131,2.27,0,1,0.118,3.92,0,1,0.09,0.11,0.458,0.399,0.117,-0.21,0.387,0,0.138,1.51,0,1,0.12,1.77,0,1
94074,20110519,-104.76,40.81,0.151,1.06,0,1,0.134,2.38,0,1,0.121,4.06,0,1,0.095,0.51,0.351,0.542,0.116,-0.27,0.53,0,0.142,1.61,0,1,0.123,1.93,0,1
94074,20110520,-104.76,40.81,0.152,1.09,0,1,0.135,2.39,0,1,0.125,4.2,0,1,0.112,1.86,0.208,0.685,0.116,-0.31,0.673,0,0.144,1.63,0,1,0.128,2.18,0,1
94074,20110521,-104.76,40.81,0.153,1.11,0.006,0.994,0.135,2.38,0.006,0.994,0.127,4.18,0.006,0.994,0.129,3.23,0.066,0.826,0.116,-0.35,0.807,0,0.144,1.63,0.006,0.994,0.132,2.4,0,1
94074,20110522,-104.76,40.81,0.155,1.14,0.006,0.994,0.136,2.41,0.006,0.994,0.129,4.18,0.006,0.994,0.146,4.59,0,0.97,0.115,-0.39,0.909,0,0.145,1.66,0.006,0.994,0.137,2.63,0,1
94074,20110523,-104.76,40.81,0.157,1.18,0.006,0.994,0.137,2.46,0.006,0.994,0.131,4.21,0.006,0.994,0.161,5.86,0,1,0.115,-0.43,1,0,0.147,1.7,0.006,0.994,0.141,2.84,0,1
94074,20110524,-104.76,40.81,0.159,1.22,0.006,0.994,0.138,2.51,0.006,0.994,0.133,4.24,0.006,0.994,0.175,7.08,0,1,0.115,-0.45,1,0,0.149,1.73,0.006,0.994,0.145,3.01,0,1
94074,20110525,-104.76,40.81,0.161,1.26,0.006,0.994,0.139,2.56,0.006,0.994,0.135,4.26,0.006,0.994,0.188,8.22,0,1,0.115,-0.48,1,0,0.15,1.77,0.006,0.994,0.148,3.18,0,1
94074,20110526,-104.76,40.81,0.16,1.26,0.006,0.994,0.139,2.56,0.006,0.994,0.136,4.25,0.006,0.994,0.2,9.25,0,1,0.115,-0.51,1,0,0.149,1.76,0.006,0.994,0.15,3.27,0,1
94074,20110527,-104.76,40.81,0.158,1.24,0.006,0.994,0.137,2.51,0.006,0.994,0.134,4.09,0.006,0.994,0.201,9.38,0,1,0.115,-0.54,1,0,0.148,1.72,0.006,0.994,0.15,3.18,0,1
94074,20110528,-104.76,40.81,0.157,1.23,0,1,0.137,2.51,0,1,0.134,4.02,0,1,0.201,9.46,0,1,0.115,-0.56,1,0,0.147,1.71,0,1,0.149,3.09,0,1
94074,20110529,-104.76,40.81,0.155,1.22,0,1,0.136,2.49,0,1,0.133,3.93,0,1,0.2,9.5,0,1,0.115,-0.59,1,0,0.145,1.68,0,1,0.148,3.02,0,1
94074,20110530,-104.76,40.81,0.156,1.24,0,1,0.135,2.52,0,1,0.132,3.87,0,1,0.2,9.54,0,1,0.115,-0.61,1,0,0.146,1.69,0,1,0.148,2.98,0,1
94074,20110531,-104.76,40.81,0.156,1.26,0,1,0.135,2.56,0,1,0.132,3.81,0,1,0.199,9.5,0,1,0.115,-0.62,1,0,0.146,1.7,0,1,0.148,2.95,0,1
94074,20110601,-104.76,40.81,0.156,1.28,0,1,0.135,2.59,0,1,0.132,3.78,0,1,0.199,9.45,0,1,0.115,-0.64,1,0,0.146,1.72,0,1,0.148,2.93,0,1
94074,20110602,-104.76,40.81,0.156,1.3,0,1,0.135,2.63,0,1,0.132,3.76,0,1,0.199,9.45,0,1,0.116,-0.64,1,0,0.146,1.73,0,1,0.148,2.91,0,1
94074,20110603,-104.76,40.81,0.155,1.31,0,1,0.135,2.66,0,1,0.132,3.73,0,1,0.2,9.4,0,1,0.116,-0.65,1,0,0.145,1.73,0,1,0.148,2.89,0,1
94074,20110604,-104.76,40.81,0.153,1.32,0,1,0.134,2.67,0,1,0.132,3.7,0,1,0.2,9.32,0,1,0.116,-0.65,1,0,0.144,1.73,0,1,0.147,2.86,0,1
94074,20110605,-104.76,40.81,0.151,1.31,0,1,0.133,2.68,0,1,0.132,3.69,0,1,0.2,9.2,0,1,0.117,-0.64,1,0,0.142,1.73,0,1,0.147,2.84,0,1
94074,20110606,-104.76,40.81,0.145,1.26,0,1,0.131,2.62,0,1,0.133,3.67,0,1,0.201,9.08,0,1,0.117,-0.63,1,0,0.138,1.68,0,1,0.145,2.78,0,1
94074,20110607,-104.76,40.81,0.137,1.19,0,1,0.128,2.54,0,1,0.132,3.65,0,1,0.202,8.91,0,1,0.118,-0.61,1,0,0.133,1.6,0,1,0.144,2.71,0,1
94074,20110608,-104.76,40.81,0.128,1.09,0,1,0.125,2.44,0,1,0.132,3.63,0,1,0.202,8.73,0,1,0.119,-0.57,1,0,0.126,1.51,0,1,0.141,2.62,0,1
94074,20110609,-104.76,40.81,0.12,1,0,1,0.121,2.33,0,1,0.131,3.58,0,1,0.202,8.45,0,1,0.12,-0.54,1,0,0.12,1.43,0,1,0.139,2.54,0,1
94074,20110610,-104.76,40.81,0.119,1.05,0,1,0.12,2.32,0,1,0.131,3.55,0,1,0.201,8.12,0,1,0.121,-0.49,1,0,0.119,1.46,0,1,0.138,2.55,0,1
94074,20110611,-104.76,40.81,0.119,1.12,0,1,0.12,2.33,0,1,0.131,3.53,0,1,0.2,7.76,0,1,0.122,-0.44,1,0,0.12,1.51,0,1,0.138,2.59,0,1
94074,20110612,-104.76,40.81,0.121,1.2,0,1,0.12,2.34,0,1,0.13,3.5,0,1,0.199,7.43,0,1,0.124,-0.39,1,0,0.12,1.58,0,1,0.139,2.65,0,1
94074,20110613,-104.76,40.81,0.122,1.3,0,1,0.12,2.36,0,1,0.13,3.47,0,1,0.197,7.08,0,1,0.125,-0.34,0.923,0,0.121,1.65,0,1,0.139,2.71,0,1
94074,20110614,-104.76,40.81,0.124,1.38,0,1,0.12,2.38,0,1,0.129,3.44,0,1,0.196,6.77,0,1,0.126,-0.3,0.798,0,0.122,1.72,0,1,0.139,2.78,0,1
94074,20110615,-104.76,40.81,0.126,1.47,0,1,0.121,2.39,0,1,0.128,3.43,0,1,0.195,6.5,0,1,0.127,-0.25,0.661,0,0.123,1.79,0,1,0.139,2.85,0,1
94074,20110616,-104.76,40.81,0.126,1.51,0,1,0.121,2.4,0,1,0.128,3.44,0,1,0.194,6.28,0,1,0.128,-0.21,0.518,0,0.123,1.83,0,1,0.139,2.9,0,1
94074,20110617,-104.76,40.81,0.118,1.41,0,1,0.118,2.3,0,1,0.127,3.43,0,1,0.193,6.12,0,1,0.128,-0.18,0.375,0,0.118,1.73,0,1,0.137,2.85,0,1
94074,20110618,-104.76,40.81,0.112,1.33,0,1,0.114,2.16,0,1,0.125,3.4,0,1,0.191,6.01,0,1,0.129,-0.14,0.232,0,0.113,1.65,0,1,0.134,2.8,0,1
94074,20110619,-104.76,40.81,0.106,1.26,0,1,0.11,2.04,0,1,0.124,3.36,0,1,0.19,5.89,0,1,0.13,-0.09,0.089,0,0.108,1.58,0,1,0.132,2.74,0,1
94074,20110620,-104.76,40.81,0.101,1.18,0,1,0.107,1.92,0,1,0.121,3.31,0,1,0.187,5.77,0,1,0.131,-0.06,0.024,0,0.104,1.5,0,1,0.129,2.66,0,1
94074,20110621,-104.76,40.81,0.096,1.12,0,1,0.103,1.81,0,1,0.119,3.23,0,1,0.184,5.67,0,1,0.132,-0.03,0.006,0,0.1,1.42,0,1,0.127,2.58,0,1
94074,20110622,-104.76,40.81,0.092,1.08,0,1,0.101,1.71,0,1,0.116,3.15,0,1,0.181,5.57,0,1,0.133,0,0,0,0.096,1.37,0,1,0.125,2.51,0,1
94074,20110623,-104.76,40.81,0.09,1.05,0,1,0.098,1.64,0,1,0.114,3.08,0,1,0.178,5.52,0,1,0.133,0.02,0,0,0.094,1.33,0,1,0.123,2.44,0,1
94074,20110624,-104.76,40.81,0.087,1.02,0,1,0.096,1.56,0,1,0.111,2.99,0,1,0.175,5.5,0,1,0.134,0.04,0,0,0.092,1.29,0,1,0.121,2.36,0,1
94074,20110625,-104.76,40.81,0.081,0.92,0,0.958,0.094,1.5,0,1,0.109,2.92,0,1,0.172,5.53,0,1,0.134,0.05,0,0,0.088,1.2,0,1,0.118,2.25,0,1
94074,20110626,-104.76,40.81,0.074,0.79,0,0.833,0.092,1.41,0,1,0.107,2.86,0,1,0.169,5.57,0,1,0.134,0.07,0,0,0.083,1.08,0,1,0.115,2.12,0,1
94074,20110627,-104.76,40.81,0.067,0.64,0,0.69,0.09,1.33,0,1,0.106,2.79,0,1,0.166,5.63,0,1,0.135,0.08,0,0,0.078,0.96,0,0.976,0.112,1.99,0,1
94074,20110628,-104.76,40.81,0.059,0.48,0,0.548,0.087,1.24,0,1,0.104,2.74,0,1,0.163,5.67,0,1,0.135,0.1,0,0,0.073,0.83,0,0.851,0.11,1.86,0,1
94074,20110629,-104.76,40.81,0.051,0.31,0.012,0.405,0.085,1.13,0,1,0.102,2.69,0,1,0.16,5.67,0,1,0.135,0.1,0.012,0,0.068,0.69,0,0.708,0.106,1.71,0,0.994
94074,20110630,-104.76,40.81,0.043,0.14,0.06,0.262,0.082,1.01,0,1,0.1,2.61,0,1,0.157,5.66,0,1,0.135,0.12,0.012,0,0.062,0.53,0,0.565,0.103,1.57,0,0.994
94074,20110701,-104.76,40.81,0.036,-0.01,0.143,0.119,0.078,0.89,0,0.976,0.098,2.52,0,1,0.153,5.59,0,1,0.135,0.14,0.012,0,0.057,0.4,0,0.423,0.1,1.43,0,0.994
94074,20110702,-104.76,40.81,0.031,-0.12,0.167,0.018,0.075,0.78,0,0.911,0.096,2.42,0,1,0.15,5.47,0,1,0.135,0.14,0.012,0,0.053,0.28,0,0.28,0.097,1.3,0,0.994
94074,20110703,-104.76,40.81,0.028,-0.18,0.167,0,0.072,0.68,0,0.774,0.093,2.31,0,1,0.147,5.34,0,1,0.135,0.15,0.012,0,0.05,0.2,0,0.137,0.095,1.19,0,0.994
94074,20110704,-104.76,40.81,0.027,-0.2,0.167,0,0.07,0.59,0,0.637,0.091,2.19,0,1,0.144,5.2,0,1,0.135,0.15,0.012,0,0.048,0.15,0,0.018,0.093,1.1,0,0.994
94074,20110705,-104.76,40.81,0.026,-0.21,0.173,0,0.068,0.51,0,0.494,0.089,2.07,0,1,0.141,5.06,0,1,0.135,0.13,0.012,0,0.047,0.11,0,0,0.092,1.01,0,0.994
94074,20110706,-104.76,40.81,0.025,-0.22,0.179,0,0.065,0.44,0,0.351,0.086,1.95,0,1,0.138,4.96,0,1,0.135,0.13,0,0,0.045,0.07,0,0,0.09,0.94,0,1
94074,20110707,-104.76,40.81,0.025,-0.23,0.22,0,0.063,0.37,0,0.208,0.084,1.83,0,1,0.135,4.82,0,1,0.135,0.1,0,0,0.044,0.03,0,0,0.088,0.86,0,1
94074,20110708,-104.76,40.81,0.026,-0.2,0.161,0,0.062,0.33,0,0.089,0.082,1.71,0,1,0.133,4.71,0,1,0.134,0.07,0,0,0.044,0.03,0,0,0.087,0.81,0,1
94074,20110709,-104.76,40.81,0.027,-0.18,0.14,0,0.06,0.29,0,0.012,0.08,1.62,0,1,0.13,4.52,0.006,0.994,0.133,-0.01,0.006,0,0.043,0.02,0,0,0.086,0.76,0,1
94074,20110710,-104.76,40.81,0.028,-0.15,0.14,0,0.058,0.25,0,0.006,0.078,1.52,0,1,0.128,4.4,0.006,0.994,0.132,-0.04,0.006,0,0.043,0.02,0,0,0.085,0.72,0,1
94074,20110711,-104.76,40.81,0.03,-0.1,0.14,0,0.057,0.21,0,0,0.076,1.42,0,1,0.125,4.28,0.006,0.994,0.132,-0.07,0.006,0,0.043,0.03,0,0,0.084,0.69,0,1
94074,20110712,-104.76,40.81,0.031,-0.06,0.134,0,0.056,0.19,0,0,0.075,1.34,0,1,0.123,4.17,0.006,0.994,0.132,-0.1,0.006,0,0.043,0.04,0,0,0.084,0.67,0,1
94074,20110713,-104.76,40.81,0.035,0.04,0.116,0.043,0.056,0.21,0,0.037,0.074,1.3,0,1,0.121,4.09,0.006,0.994,0.131,-0.13,0.018,0,0.045,0.11,0,0.043,0.084,0.69,0,1
94074,20110714,-104.76,40.81,0.047,0.44,0.024,0.189,0.062,0.43,0,0.183,0.076,1.48,0,1,0.119,4.02,0.006,0.994,0.131,-0.14,0.018,0,0.054,0.47,0,0.189,0.087,0.94,0,1
94074,20110715,-104.76,40.81,0.058,0.83,0,0.335,0.068,0.69,0,0.329,0.079,1.71,0,1,0.117,3.96,0.006,0.994,0.131,-0.17,0.018,0,0.063,0.86,0,0.335,0.091,1.21,0,1
94074,20110716,-104.76,40.81,0.068,1.14,0,0.47,0.074,0.94,0,0.464,0.083,1.96,0,1,0.117,4.01,0,1,0.131,-0.14,0.012,0,0.071,1.18,0,0.47,0.095,1.44,0,1
94074,20110717,-104.76,40.81,0.075,1.37,0,0.613,0.08,1.17,0,0.607,0.086,2.22,0,1,0.116,4.02,0,1,0.131,-0.15,0.012,0,0.077,1.45,0,0.613,0.098,1.64,0,1
94074,20110718,-104.76,40.81,0.08,1.56,0,0.756,0.085,1.39,0,0.75,0.089,2.47,0,1,0.116,4.03,0,1,0.131,-0.16,0.018,0,0.082,1.67,0,0.756,0.1,1.82,0,1
94074,20110719,-104.76,40.81,0.085,1.75,0,0.899,0.089,1.59,0,0.893,0.091,2.7,0,1,0.115,4.03,0,1,0.131,-0.15,0.018,0,0.087,1.89,0,0.899,0.103,2,0,1
94074,20110720,-104.76,40.81,0.089,1.89,0,1,0.093,1.76,0,1,0.093,2.91,0,1,0.115,4.04,0,1,0.131,-0.13,0.006,0,0.091,2.05,0,1,0.104,2.15,0,1
94074,20110721,-104.76,40.81,0.087,1.83,0,1,0.092,1.8,0,1,0.092,2.89,0,1,0.115,4.04,0,1,0.131,-0.12,0.006,0,0.089,2.01,0,1,0.103,2.14,0,1
94074,20110722,-104.76,40.81,0.083,1.74,0,1,0.09,1.8,0,1,0.09,2.82,0,1,0.114,4.05,0,1,0.132,-0.1,0.006,0,0.087,1.93,0,1,0.102,2.09,0,1
94074,20110723,-104.76,40.81,0.08,1.64,0,1,0.088,1.76,0,1,0.087,2.73,0,1,0.114,4.08,0,1,0.132,-0.07,0.006,0,0.084,1.82,0,1,0.1,2.04,0,1
94074,20110724,-104.76,40.81,0.075,1.51,0,1,0.086,1.73,0,1,0.085,2.62,0,1,0.113,4.13,0,1,0.132,-0.06,0.006,0,0.081,1.71,0,1,0.098,1.97,0,1
94074,20110725,-104.76,40.81,0.07,1.35,0,0.911,0.083,1.68,0,1,0.083,2.5,0,1,0.113,4.24,0,1,0.132,-0.04,0,0,0.077,1.58,0,1,0.096,1.89,0,1
94074,20110726,-104.76,40.81,0.067,1.25,0,0.899,0.081,1.62,0,1,0.08,2.37,0,1,0.112,4.34,0,1,0.133,-0.03,0,0,0.074,1.48,0,1,0.095,1.81,0,1
94074,20110727,-104.76,40.81,0.063,1.14,0,0.893,0.078,1.52,0,1,0.078,2.22,0,1,0.111,4.4,0,1,0.133,-0.02,0,0,0.071,1.36,0,1,0.093,1.73,0,1
94074,20110728,-104.76,40.81,0.057,0.94,0,0.827,0.074,1.36,0,1,0.076,2.08,0,1,0.11,4.44,0,1,0.133,-0.01,0,0,0.066,1.16,0,1,0.09,1.59,0,1
94074,20110729,-104.76,40.81,0.051,0.73,0,0.696,0.07,1.2,0,1,0.073,1.94,0,1,0.109,4.45,0,1,0.133,-0.01,0,0,0.061,0.96,0,0.988,0.087,1.44,0,1
94074,20110730,-104.76,40.81,0.046,0.54,0,0.56,0.067,1.07,0,1,0.071,1.81,0,1,0.108,4.43,0,1,0.133,-0.02,0,0,0.056,0.79,0,0.935,0.085,1.31,0,1
94074,20110731,-104.76,40.81,0.041,0.41,0.024,0.417,0.064,0.95,0,1,0.069,1.71,0,1,0.107,4.37,0,1,0.133,-0.03,0,0,0.053,0.65,0,0.792,0.083,1.2,0,1
94074,20110801,-104.76,40.81,0.038,0.32,0.065,0.363,0.061,0.86,0,1,0.068,1.63,0,1,0.106,4.31,0,1,0.133,-0.03,0,0,0.05,0.55,0,0.649,0.081,1.12,0,1
94074,20110802,-104.76,40.81,0.034,0.17,0.137,0.232,0.059,0.78,0,0.994,0.066,1.58,0,1,0.106,4.21,0,1,0.133,-0.02,0,0,0.046,0.41,0,0.506,0.079,1.01,0,1
94074,20110803,-104.76,40.81,0.03,0.06,0.196,0.095,0.057,0.68,0,0.869,0.065,1.52,0,1,0.105,4.11,0,1,0.132,-0.02,0,0,0.043,0.3,0.006,0.363,0.078,0.91,0,1
94074,20110804,-104.76,40.81,0.03,0.07,0.196,0.125,0.055,0.59,0,0.726,0.064,1.47,0,1,0.104,3.99,0,1,0.132,-0.03,0,0,0.042,0.27,0.006,0.327,0.077,0.88,0,1
94074,20110805,-104.76,40.81,0.03,0.11,0.196,0.256,0.053,0.52,0,0.583,0.063,1.44,0,1,0.103,3.91,0,1,0.132,-0.03,0,0,0.041,0.26,0.006,0.321,0.076,0.85,0,1
94074,20110806,-104.76,40.81,0.031,0.18,0.196,0.369,0.051,0.46,0,0.506,0.061,1.41,0,1,0.102,3.84,0,1,0.132,-0.04,0,0,0.041,0.28,0.006,0.351,0.076,0.84,0,1
94074,20110807,-104.76,40.81,0.032,0.24,0.173,0.393,0.05,0.41,0,0.429,0.06,1.38,0,1,0.102,3.78,0,1,0.132,-0.05,0,0,0.041,0.29,0.006,0.393,0.075,0.82,0,1
94074,20110808,-104.76,40.81,0.032,0.26,0.137,0.393,0.048,0.37,0,0.351,0.059,1.35,0,1,0.101,3.66,0,1,0.132,-0.07,0,0,0.04,0.29,0.006,0.399,0.074,0.79,0,0.994
94074,20110809,-104.76,40.81,0.032,0.28,0.101,0.393,0.047,0.34,0,0.25,0.058,1.31,0,1,0.1,3.55,0,1,0.131,-0.11,0,0,0.04,0.29,0.006,0.399,0.074,0.76,0,0.952
94074,20110810,-104.76,40.81,0.032,0.25,0.101,0.393,0.047,0.34,0,0.268,0.058,1.28,0,1,0.099,3.46,0,1,0.131,-0.14,0,0,0.039,0.28,0,0.399,0.073,0.73,0,0.839
94074,20110811,-104.76,40.81,0.028,0.14,0.167,0.286,0.046,0.34,0,0.274,0.057,1.26,0,1,0.098,3.4,0,1,0.131,-0.17,0,0,0.037,0.2,0,0.292,0.072,0.65,0,0.726
94074,20110812,-104.76,40.81,0.024,0,0.262,0.143,0.046,0.34,0,0.28,0.056,1.24,0,1,0.098,3.3,0,1,0.13,-0.2,0,0,0.035,0.11,0.006,0.167,0.071,0.56,0,0.595
94074,20110813,-104.76,40.81,0.02,-0.15,0.369,0.024,0.045,0.31,0,0.214,0.056,1.22,0,1,0.097,3.21,0,1,0.13,-0.23,0,0,0.032,0,0.012,0.048,0.069,0.47,0,0.47
94074,20110814,-104.76,40.81,0.017,-0.22,0.446,0,0.043,0.26,0,0.149,0.055,1.18,0,1,0.097,3.1,0,1,0.13,-0.25,0,0,0.03,-0.06,0.036,0.006,0.068,0.42,0,0.333
94074,20110815,-104.76,40.81,0.016,-0.26,0.518,0,0.042,0.2,0,0.083,0.054,1.14,0,1,0.096,3.01,0,1,0.13,-0.27,0,0,0.029,-0.11,0.089,0,0.068,0.37,0,0.202
94074,20110816,-104.76,40.81,0.015,-0.29,0.601,0,0.04,0.13,0,0.048,0.054,1.11,0,1,0.095,2.9,0,1,0.13,-0.28,0,0,0.028,-0.16,0.185,0,0.067,0.33,0,0.101
94074,20110817,-104.76,40.81,0.015,-0.27,0.607,0.006,0.039,0.04,0.06,0.012,0.053,1.04,0,0.994,0.094,2.81,0,1,0.129,-0.29,0,0,0.027,-0.18,0.256,0,0.066,0.31,0,0.077
94074,20110818,-104.76,40.81,0.017,-0.14,0.542,0.125,0.037,-0.02,0.107,0.006,0.052,0.98,0,0.988,0.093,2.67,0,1,0.129,-0.33,0.018,0,0.027,-0.13,0.256,0.03,0.066,0.32,0,0.167
94074,20110819,-104.76,40.81,0.02,0.02,0.446,0.256,0.036,-0.07,0.113,0,0.052,0.93,0,0.988,0.093,2.55,0,1,0.129,-0.36,0.024,0,0.028,-0.05,0.25,0.095,0.066,0.36,0,0.292
94074,20110820,-104.76,40.81,0.021,0.12,0.339,0.321,0.035,-0.13,0.161,0,0.051,0.87,0,0.988,0.092,2.43,0,1,0.128,-0.38,0.03,0,0.028,-0.02,0.244,0.101,0.065,0.37,0,0.369
94074,20110821,-104.76,40.81,0.022,0.22,0.262,0.405,0.034,-0.14,0.161,0,0.05,0.81,0,0.97,0.091,2.29,0,1,0.128,-0.42,0.06,0,0.028,0.04,0.22,0.149,0.065,0.39,0,0.488
94074,20110822,-104.76,40.81,0.023,0.3,0.185,0.458,0.034,-0.12,0.161,0,0.05,0.77,0,0.97,0.09,2.16,0,1,0.127,-0.46,0.125,0,0.029,0.1,0.167,0.179,0.065,0.42,0,0.613
94074,20110823,-104.76,40.81,0.024,0.37,0.065,0.476,0.034,-0.09,0.161,0,0.049,0.74,0,0.97,0.089,2.07,0,1,0.127,-0.5,0.208,0,0.029,0.16,0.071,0.185,0.065,0.45,0,0.72
94074,20110824,-104.76,40.81,0.024,0.38,0.006,0.47,0.034,-0.04,0.101,0.006,0.049,0.75,0,0.976,0.089,2.01,0,1,0.126,-0.55,0.345,0,0.029,0.19,0,0.185,0.064,0.47,0,0.815
94074,20110825,-104.76,40.81,0.022,0.29,0.024,0.375,0.034,0.01,0.054,0.024,0.049,0.79,0,0.982,0.088,1.99,0,1,0.126,-0.58,0.464,0,0.028,0.16,0,0.179,0.064,0.44,0,0.792
94074,20110826,-104.76,40.81,0.02,0.16,0.054,0.268,0.034,0.04,0.048,0.048,0.049,0.81,0,0.982,0.088,1.97,0,1,0.125,-0.61,0.577,0,0.027,0.1,0,0.125,0.063,0.4,0,0.744
94074,20110827,-104.76,40.81,0.018,0.08,0.119,0.226,0.034,0.06,0,0.048,0.049,0.82,0,0.982,0.088,1.94,0,1,0.125,-0.63,0.667,0,0.026,0.06,0.03,0.125,0.063,0.37,0,0.673
94074,20110828,-104.76,40.81,0.016,-0.02,0.173,0.149,0.034,0.06,0,0.048,0.049,0.86,0,1,0.087,1.91,0,1,0.125,-0.64,0.732,0,0.025,0.01,0.048,0.077,0.062,0.33,0,0.577
94074,20110829,-104.76,40.81,0.015,-0.1,0.268,0.095,0.033,0.02,0.006,0.048,0.048,0.85,0,1,0.087,1.87,0,1,0.124,-0.64,0.75,0,0.024,-0.06,0.095,0.048,0.062,0.26,0,0.446
94074,20110830,-104.76,40.81,0.014,-0.14,0.321,0.077,0.032,-0.03,0.054,0.048,0.048,0.8,0,0.982,0.086,1.82,0,1,0.124,-0.65,0.792,0,0.023,-0.11,0.161,0.042,0.061,0.2,0,0.339
94074,20110831,-104.76,40.81,0.014,-0.16,0.381,0.077,0.032,-0.08,0.065,0.042,0.047,0.75,0,0.929,0.085,1.73,0,1,0.124,-0.66,0.792,0,0.023,-0.13,0.202,0.042,0.06,0.14,0,0.238
94074,20110901,-104.76,40.81,0.013,-0.19,0.464,0.054,0.031,-0.13,0.077,0.024,0.047,0.69,0,0.905,0.085,1.65,0,1,0.123,-0.67,0.792,0,0.022,-0.17,0.244,0.018,0.06,0.07,0,0.143
94074,20110902,-104.76,40.81,0.013,-0.21,0.476,0.03,0.03,-0.19,0.125,0,0.046,0.6,0,0.839,0.084,1.59,0,1,0.123,-0.67,0.798,0,0.022,-0.21,0.28,0.006,0.059,0,0,0.054
94074,20110903,-104.76,40.81,0.013,-0.23,0.506,0.006,0.029,-0.23,0.214,0,0.046,0.58,0,0.827,0.083,1.54,0,1,0.122,-0.68,0.833,0,0.021,-0.23,0.357,0,0.059,-0.06,0.018,0.03
94074,20110904,-104.76,40.81,0.013,-0.23,0.524,0,0.028,-0.29,0.357,0,0.045,0.5,0,0.786,0.082,1.52,0,1,0.122,-0.7,0.869,0,0.021,-0.25,0.452,0,0.058,-0.13,0.101,0
94074,20110905,-104.76,40.81,0.013,-0.22,0.488,0,0.027,-0.34,0.494,0,0.044,0.42,0,0.702,0.082,1.46,0,1,0.121,-0.71,0.929,0,0.02,-0.26,0.536,0,0.058,-0.19,0.244,0
94074,20110906,-104.76,40.81,0.013,-0.22,0.5,0,0.027,-0.37,0.589,0,0.044,0.36,0.006,0.619,0.081,1.42,0,1,0.121,-0.74,0.946,0,0.02,-0.28,0.595,0,0.057,-0.24,0.387,0
94074,20110907,-104.76,40.81,0.012,-0.24,0.5,0,0.026,-0.44,0.72,0,0.043,0.3,0.006,0.56,0.081,1.39,0,1,0.121,-0.76,0.952,0,0.019,-0.31,0.69,0,0.057,-0.3,0.53,0
94074,20110908,-104.76,40.81,0.02,0.17,0.399,0.137,0.028,-0.29,0.738,0.107,0.043,0.18,0.048,0.44,0.08,1.33,0,1,0.12,-0.76,0.952,0,0.024,0,0.655,0.131,0.058,-0.08,0.536,0.131
94074,20110909,-104.76,40.81,0.03,0.71,0.357,0.28,0.032,0.05,0.69,0.25,0.042,0.1,0.077,0.363,0.079,1.25,0,1,0.12,-0.78,0.964,0,0.031,0.49,0.619,0.274,0.061,0.29,0.536,0.274
94074,20110910,-104.76,40.81,0.042,1.28,0.262,0.423,0.039,0.51,0.601,0.393,0.042,-0.01,0.101,0.25,0.079,1.17,0,1,0.12,-0.8,0.976,0,0.04,1.05,0.512,0.417,0.064,0.73,0.518,0.417
94074,20110911,-104.76,40.81,0.053,1.79,0.19,0.565,0.046,1.02,0.458,0.536,0.041,-0.06,0.101,0.173,0.078,1.09,0,1,0.119,-0.82,0.988,0,0.049,1.61,0.399,0.56,0.068,1.18,0.435,0.56
94074,20110912,-104.76,40.81,0.064,2.23,0.131,0.708,0.053,1.52,0.315,0.679,0.041,-0.06,0.101,0.185,0.078,1.04,0,1,0.119,-0.83,0.988,0,0.059,2.13,0.268,0.702,0.071,1.62,0.292,0.702
94074,20110913,-104.76,40.81,0.074,2.62,0.065,0.851,0.061,1.99,0.173,0.821,0.041,-0.03,0.095,0.238,0.078,1.01,0,1,0.119,-0.83,0.988,0,0.067,2.58,0.143,0.845,0.074,2.03,0.149,0.845
94074,20110914,-104.76,40.81,0.084,2.93,0,0.994,0.068,2.4,0.03,0.964,0.041,0.02,0.095,0.31,0.077,0.98,0,1,0.119,-0.83,0.988,0,0.076,2.97,0.006,0.988,0.078,2.4,0.006,0.988
94074,20110915,-104.76,40.81,0.084,2.79,0,1,0.072,2.53,0,1,0.041,0.08,0.054,0.387,0.077,0.97,0,1,0.118,-0.83,0.994,0,0.078,2.95,0,1,0.079,2.41,0,1
94074,20110916,-104.76,40.81,0.085,2.58,0,1,0.075,2.47,0,1,0.041,0.06,0.101,0.393,0.077,0.92,0,0.994,0.118,-0.84,1,0,0.08,2.79,0,1,0.079,2.3,0,1
94074,20110917,-104.76,40.81,0.086,2.38,0,1,0.077,2.33,0,1,0.041,0.07,0.095,0.399,0.077,0.87,0,0.988,0.118,-0.84,1,0,0.082,2.59,0,1,0.08,2.17,0,1
94074,20110918,-104.76,40.81,0.088,2.21,0,1,0.079,2.16,0,1,0.041,0.07,0.113,0.411,0.076,0.83,0,0.988,0.118,-0.84,1,0,0.083,2.38,0,1,0.08,2.02,0,1
94074,20110919,-104.76,40.81,0.09,2.09,0,1,0.08,1.99,0,1,0.041,0.07,0.119,0.393,0.076,0.77,0,0.988,0.118,-0.84,1,0,0.085,2.2,0,1,0.081,1.9,0,1
94074,20110920,-104.76,40.81,0.092,2.02,0,1,0.082,1.84,0,1,0.041,0.11,0.119,0.423,0.076,0.72,0,0.988,0.117,-0.85,1,0,0.087,2.07,0,1,0.082,1.8,0,1
94074,20110921,-104.76,40.81,0.095,1.99,0,1,0.085,1.76,0,1,0.041,0.15,0.119,0.464,0.075,0.68,0,0.988,0.117,-0.86,1,0,0.09,1.99,0,1,0.083,1.75,0,1
94074,20110922,-104.76,40.81,0.098,1.97,0,1,0.087,1.74,0,1,0.041,0.23,0.119,0.53,0.075,0.65,0,0.988,0.117,-0.88,1,0,0.093,1.95,0,1,0.084,1.75,0,1
94074,20110923,-104.76,40.81,0.098,1.85,0,1,0.089,1.7,0,1,0.042,0.4,0.042,0.667,0.075,0.66,0,0.994,0.117,-0.88,1,0,0.093,1.85,0,1,0.084,1.7,0,1
94074,20110924,-104.76,40.81,0.095,1.68,0,1,0.088,1.61,0,1,0.043,0.54,0.024,0.786,0.075,0.68,0,1,0.117,-0.89,1,0,0.092,1.71,0,1,0.084,1.6,0,1